AUA547 LOWW-LIPE

Flight info

Callsign AUA547
Flight time 0h 59m
Altitude 30000
Route RUPET DCT GRZ DCT RADLY DCT ROSKA/N0452F330 DCT TULIK DCT ARVOD/N0383F190 P125 BAMEK
Aircraft A321/M-SDE3FGHIRWY/LB1

Departure

Time 2026-05-05 11:20
Airport Vienna International Airport (LOWW)

Arrival

Time 2026-05-05 12:19
Airport Bologna Guglielmo Marconi Airport (LIPE)
Time Latitude Longitude Altitude Speed Heading
2026-05-05 10:21 48.11654 16.56952 630 ft 0 kts 25°
2026-05-05 10:34 48.11653 16.56952 615 ft 0 kts 25°
2026-05-05 10:36 48.11654 16.56952 616 ft 0 kts 26°
2026-05-05 10:54 48.11653 16.56952 616 ft 0 kts 25°
2026-05-05 11:09 48.11636 16.56939 627 ft 4 kts 27°
2026-05-05 11:09 48.11613 16.56919 624 ft 4 kts 36°
2026-05-05 11:09 48.11595 16.56892 629 ft 4 kts 71°
2026-05-05 11:09 48.11594 16.56871 629 ft 0 kts 116°
2026-05-05 11:13 48.11594 16.56873 629 ft 1 kts 116°
2026-05-05 11:13 48.11584 16.56904 615 ft 5 kts 116°
2026-05-05 11:13 48.11561 16.56973 615 ft 10 kts 116°
2026-05-05 11:14 48.11526 16.57080 621 ft 13 kts 115°
2026-05-05 11:14 48.11481 16.57219 620 ft 16 kts 116°
2026-05-05 11:14 48.11437 16.57372 618 ft 15 kts 97°
2026-05-05 11:14 48.11473 16.57443 625 ft 9 kts 30°
2026-05-05 11:15 48.11540 16.57497 626 ft 13 kts 33°
2026-05-05 11:15 48.11619 16.57536 615 ft 10 kts 355°
2026-05-05 11:15 48.11699 16.57516 620 ft 13 kts 345°
2026-05-05 11:15 48.11795 16.57476 615 ft 15 kts 344°
2026-05-05 11:16 48.11903 16.57430 619 ft 15 kts 344°
2026-05-05 11:16 48.11985 16.57406 619 ft 9 kts 18°
2026-05-05 11:16 48.12011 16.57492 615 ft 11 kts 99°
2026-05-05 11:16 48.11997 16.57588 615 ft 0 kts 104°
2026-05-05 11:17 48.11997 16.57589 615 ft 1 kts 104°
2026-05-05 11:17 48.11992 16.57618 615 ft 5 kts 104°
2026-05-05 11:18 48.11980 16.57691 615 ft 9 kts 104°
2026-05-05 11:18 48.11949 16.57800 626 ft 11 kts 126°
2026-05-05 11:18 48.11891 16.57855 616 ft 9 kts 163°
2026-05-05 11:18 48.11872 16.57864 614 ft 0 kts 164°
2026-05-05 11:19 48.11818 16.57887 619 ft 33 kts 164°
2026-05-05 11:19 48.11409 16.58066 623 ft 87 kts 164°
2026-05-05 11:19 48.10679 16.58371 626 ft 132 kts 164°
2026-05-05 11:19 48.09700 16.58772 884 ft 154 kts 163°
2026-05-05 11:20 48.08620 16.59181 1470 ft 166 kts 167°
2026-05-05 11:20 48.07512 16.59615 2181 ft 171 kts 165°
2026-05-05 11:20 48.06318 16.60129 2465 ft 185 kts 169°
2026-05-05 11:20 48.04974 16.60025 2641 ft 208 kts 197°
2026-05-05 11:21 48.03694 16.58799 2944 ft 233 kts 223°
2026-05-05 11:21 48.02623 16.56859 3423 ft 250 kts 228°
2026-05-05 11:21 48.01541 16.54810 4141 ft 252 kts 228°
2026-05-05 11:21 48.00458 16.52794 4963 ft 251 kts 228°
2026-05-05 11:22 47.99352 16.50764 5724 ft 254 kts 228°
2026-05-05 11:22 47.98226 16.48716 6418 ft 256 kts 228°
2026-05-05 11:22 47.97095 16.46668 7187 ft 255 kts 228°
2026-05-05 11:22 47.96054 16.44523 7872 ft 260 kts 240°
2026-05-05 11:23 47.95439 16.41939 8465 ft 269 kts 251°
2026-05-05 11:23 47.94970 16.39222 9115 ft 272 kts 252°
2026-05-05 11:23 47.94499 16.36469 9781 ft 274 kts 252°
2026-05-05 11:23 47.94015 16.33699 10324 ft 280 kts 252°
2026-05-05 11:24 47.93501 16.30812 10573 ft 296 kts 252°
2026-05-05 11:24 47.92952 16.27759 10785 ft 313 kts 252°
2026-05-05 11:24 47.92374 16.24543 10995 ft 329 kts 252°
2026-05-05 11:24 47.91764 16.21171 11180 ft 345 kts 252°
2026-05-05 11:25 47.91125 16.17650 11399 ft 359 kts 252°
2026-05-05 11:25 47.90464 16.14024 11829 ft 365 kts 253°
2026-05-05 11:25 47.89800 16.10370 12456 ft 366 kts 253°
2026-05-05 11:25 47.89130 16.06704 13064 ft 367 kts 252°
2026-05-05 11:26 47.88456 16.03026 13625 ft 370 kts 252°
2026-05-05 11:26 47.87525 15.99471 14104 ft 370 kts 240°
2026-05-05 11:26 47.85962 15.96441 14601 ft 371 kts 224°
2026-05-05 11:26 47.83855 15.94256 15068 ft 374 kts 207°
2026-05-05 11:27 47.81434 15.92797 15529 ft 378 kts 201°
2026-05-05 11:27 47.78948 15.91453 15969 ft 382 kts 201°
2026-05-05 11:27 47.76439 15.90080 16373 ft 387 kts 202°
2026-05-05 11:27 47.73894 15.88663 16673 ft 394 kts 202°
2026-05-05 11:28 47.71312 15.87210 17052 ft 398 kts 202°
2026-05-05 11:28 47.68760 15.85769 17630 ft 397 kts 202°
2026-05-05 11:28 47.66185 15.84316 18252 ft 395 kts 202°
2026-05-05 11:28 47.63615 15.82868 18701 ft 396 kts 202°
2026-05-05 11:29 47.61020 15.81404 19032 ft 401 kts 202°
2026-05-05 11:29 47.58410 15.79931 19400 ft 403 kts 202°
2026-05-05 11:29 47.55772 15.78447 19720 ft 408 kts 202°
2026-05-05 11:29 47.53101 15.76946 19948 ft 414 kts 202°
2026-05-05 11:30 47.50384 15.75418 20226 ft 418 kts 202°
2026-05-05 11:30 47.47666 15.73894 20667 ft 418 kts 202°
2026-05-05 11:30 47.44952 15.72379 21241 ft 415 kts 202°
2026-05-05 11:30 47.42242 15.70862 21677 ft 416 kts 202°
2026-05-05 11:31 47.39539 15.69348 22118 ft 416 kts 202°
2026-05-05 11:31 47.36821 15.67829 22433 ft 420 kts 202°
2026-05-05 11:31 47.34098 15.66311 22729 ft 423 kts 202°
2026-05-05 11:31 47.31401 15.64810 23027 ft 426 kts 202°
2026-05-05 11:32 47.28652 15.63277 23348 ft 427 kts 202°
2026-05-05 11:32 47.25921 15.61754 23688 ft 428 kts 202°
2026-05-05 11:32 47.23196 15.60237 23958 ft 429 kts 202°
2026-05-05 11:32 47.21336 15.59204 24110 ft 431 kts 202°
2026-05-05 11:33 47.18524 15.57644 24400 ft 432 kts 202°
2026-05-05 11:33 47.15701 15.56081 24702 ft 434 kts 202°
2026-05-05 11:33 47.12863 15.54509 24866 ft 438 kts 202°
2026-05-05 11:33 47.10010 15.52929 25062 ft 441 kts 202°
2026-05-05 11:34 47.07126 15.51335 25324 ft 442 kts 202°
2026-05-05 11:34 47.04249 15.49750 25590 ft 443 kts 202°
2026-05-05 11:34 47.01359 15.48160 25872 ft 443 kts 202°
2026-05-05 11:34 46.98477 15.46576 26205 ft 442 kts 202°
2026-05-05 11:35 46.95615 15.44936 26475 ft 442 kts 205°
2026-05-05 11:35 46.92865 15.42959 26798 ft 440 kts 210°
2026-05-05 11:35 46.90172 15.40828 27108 ft 439 kts 210°
2026-05-05 11:35 46.87492 15.38695 27433 ft 438 kts 210°
2026-05-05 11:36 46.84817 15.36588 27761 ft 438 kts 210°
2026-05-05 11:36 46.82129 15.34482 28139 ft 435 kts 210°
2026-05-05 11:36 46.79465 15.32405 28576 ft 432 kts 210°
2026-05-05 11:36 46.76849 15.30369 28935 ft 430 kts 210°
2026-05-05 11:37 46.74231 15.28336 29236 ft 430 kts 210°
2026-05-05 11:37 46.71586 15.26281 29445 ft 431 kts 210°
2026-05-05 11:37 46.68934 15.24224 29695 ft 432 kts 209°
2026-05-05 11:37 46.66324 15.22084 29938 ft 431 kts 214°
2026-05-05 11:38 46.63955 15.19384 29977 ft 434 kts 224°
2026-05-05 11:38 46.60051 15.12558 29975 ft 444 kts 232°
2026-05-05 11:39 46.56212 15.05425 29958 ft 450 kts 231°
2026-05-05 11:39 46.52311 14.98290 29971 ft 451 kts 231°
2026-05-05 11:40 46.48421 14.91209 29971 ft 452 kts 231°
2026-05-05 11:40 46.44500 14.84099 29980 ft 452 kts 231°
2026-05-05 11:41 46.40611 14.77039 29999 ft 451 kts 231°
2026-05-05 11:41 46.36680 14.69942 30001 ft 452 kts 230°
2026-05-05 11:42 46.32760 14.62881 30012 ft 451 kts 230°
2026-05-05 11:42 46.28814 14.55796 30021 ft 451 kts 231°
2026-05-05 11:43 46.24871 14.48722 30030 ft 452 kts 231°
2026-05-05 11:43 46.20911 14.41639 30025 ft 453 kts 231°
2026-05-05 11:44 46.16942 14.34565 30022 ft 454 kts 231°
2026-05-05 11:44 46.12979 14.27521 30029 ft 453 kts 231°
2026-05-05 11:45 46.09008 14.20473 30026 ft 453 kts 231°
2026-05-05 11:45 46.05032 14.13430 30037 ft 453 kts 230°
2026-05-05 11:46 46.01056 14.06402 30043 ft 452 kts 230°
2026-05-05 11:46 45.97073 13.99388 30057 ft 453 kts 230°
2026-05-05 11:47 45.93099 13.92403 30048 ft 453 kts 230°
2026-05-05 11:47 45.89108 13.85395 30051 ft 453 kts 230°
2026-05-05 11:48 45.83132 13.74950 30050 ft 454 kts 230°
2026-05-05 11:48 45.79114 13.67956 30054 ft 455 kts 230°
2026-05-05 11:49 45.75117 13.61008 30052 ft 455 kts 230°
2026-05-05 11:49 45.71074 13.54009 30053 ft 456 kts 230°
2026-05-05 11:50 45.67012 13.46987 30052 ft 456 kts 230°
2026-05-05 11:50 45.62962 13.40019 30051 ft 456 kts 230°
2026-05-05 11:51 45.58909 13.33046 30041 ft 455 kts 230°
2026-05-05 11:51 45.54909 13.26180 30040 ft 455 kts 229°
2026-05-05 11:52 45.50841 13.19222 30037 ft 455 kts 229°
2026-05-05 11:52 45.46789 13.12290 30029 ft 455 kts 229°
2026-05-05 11:53 45.42760 13.05419 30026 ft 454 kts 229°
2026-05-05 11:53 45.38703 12.98527 30022 ft 454 kts 229°
2026-05-05 11:54 45.34645 12.91652 30021 ft 453 kts 229°
2026-05-05 11:54 45.30702 12.84661 30013 ft 454 kts 236°
2026-05-05 11:55 45.27847 12.76654 30013 ft 456 kts 250°
2026-05-05 11:55 45.26079 12.68004 30014 ft 457 kts 252°
2026-05-05 11:56 45.24329 12.59476 30015 ft 442 kts 251°
2026-05-05 11:56 45.23467 12.55358 29775 ft 430 kts 251°
2026-05-05 11:56 45.22662 12.51508 29480 ft 427 kts 251°
2026-05-05 11:57 45.21811 12.47457 29184 ft 424 kts 251°
2026-05-05 11:57 45.20967 12.43451 28899 ft 422 kts 251°
2026-05-05 11:57 45.20128 12.39476 28632 ft 420 kts 251°
2026-05-05 11:57 45.19289 12.35514 28371 ft 418 kts 251°
2026-05-05 11:58 45.18453 12.31573 28096 ft 416 kts 251°
2026-05-05 11:58 45.17621 12.27649 27823 ft 415 kts 251°
2026-05-05 11:58 45.16793 12.23752 27462 ft 412 kts 251°
2026-05-05 11:58 45.15960 12.19875 26953 ft 408 kts 250°
2026-05-05 11:59 45.14996 12.16127 26443 ft 404 kts 247°
2026-05-05 11:59 45.13976 12.12433 25936 ft 401 kts 247°
2026-05-05 11:59 45.12959 12.08768 25421 ft 397 kts 247°
2026-05-05 11:59 45.11953 12.05143 24921 ft 394 kts 247°
2026-05-05 12:00 45.10957 12.01551 24414 ft 391 kts 247°
2026-05-05 12:00 45.09967 11.97990 23906 ft 387 kts 247°
2026-05-05 12:00 45.08982 11.94452 23383 ft 384 kts 247°
2026-05-05 12:00 45.08020 11.90997 22858 ft 381 kts 247°
2026-05-05 12:01 45.07053 11.87524 22342 ft 378 kts 247°
2026-05-05 12:01 45.06091 11.84076 21851 ft 374 kts 247°
2026-05-05 12:01 45.05135 11.80661 21389 ft 372 kts 247°
2026-05-05 12:01 45.04197 11.77309 20940 ft 369 kts 246°
2026-05-05 12:02 45.03256 11.73961 20490 ft 366 kts 246°
2026-05-05 12:02 45.02315 11.70615 20062 ft 364 kts 246°
2026-05-05 12:02 45.01382 11.67301 19638 ft 362 kts 246°
2026-05-05 12:02 45.00455 11.64013 19198 ft 359 kts 247°
2026-05-05 12:03 44.99534 11.60741 18759 ft 357 kts 247°
2026-05-05 12:03 44.98618 11.57490 18356 ft 355 kts 247°
2026-05-05 12:03 44.97706 11.54259 17902 ft 352 kts 247°
2026-05-05 12:03 44.96802 11.51061 17456 ft 350 kts 247°
2026-05-05 12:04 44.95904 11.47892 17011 ft 347 kts 247°
2026-05-05 12:04 44.95007 11.44729 16595 ft 345 kts 247°
2026-05-05 12:04 44.94115 11.41594 16195 ft 343 kts 247°
2026-05-05 12:04 44.93242 11.38517 15816 ft 340 kts 247°
2026-05-05 12:05 44.92363 11.35431 15438 ft 338 kts 247°
2026-05-05 12:05 44.91458 11.32381 15075 ft 333 kts 243°
2026-05-05 12:05 44.90157 11.29769 14750 ft 323 kts 225°
2026-05-05 12:05 44.88328 11.27982 14289 ft 321 kts 206°
2026-05-05 12:06 44.86160 11.27188 13835 ft 326 kts 188°
2026-05-05 12:06 44.83886 11.27416 13356 ft 331 kts 171°
2026-05-05 12:06 44.81727 11.28609 12917 ft 338 kts 152°
2026-05-05 12:06 44.79968 11.30805 12499 ft 345 kts 132°
2026-05-05 12:07 44.78783 11.33750 12054 ft 349 kts 112°
2026-05-05 12:07 44.78225 11.37004 11778 ft 341 kts 104°
2026-05-05 12:07 44.77680 11.40179 11584 ft 327 kts 109°
2026-05-05 12:07 44.76951 11.43144 11404 ft 313 kts 115°
2026-05-05 12:08 44.76052 11.45894 11091 ft 307 kts 121°
2026-05-05 12:08 44.74988 11.48478 10735 ft 303 kts 127°
2026-05-05 12:08 44.73787 11.50882 10376 ft 299 kts 131°
2026-05-05 12:08 44.72456 11.53117 10017 ft 296 kts 136°
2026-05-05 12:09 44.71016 11.55168 9643 ft 293 kts 141°
2026-05-05 12:09 44.69481 11.57027 9245 ft 290 kts 146°
2026-05-05 12:09 44.67878 11.58673 8869 ft 286 kts 150°
2026-05-05 12:09 44.66192 11.60134 8510 ft 283 kts 155°
2026-05-05 12:10 44.64444 11.61396 8151 ft 280 kts 159°
2026-05-05 12:10 44.62658 11.62450 7800 ft 277 kts 164°
2026-05-05 12:10 44.60839 11.63300 7453 ft 274 kts 168°
2026-05-05 12:10 44.59002 11.63949 7110 ft 271 kts 172°
2026-05-05 12:11 44.57152 11.64398 6773 ft 267 kts 176°
2026-05-05 12:11 44.55326 11.64650 6451 ft 261 kts 180°
2026-05-05 12:11 44.53531 11.64718 6153 ft 254 kts 185°
2026-05-05 12:11 44.51798 11.64616 5872 ft 247 kts 188°
2026-05-05 12:12 44.50124 11.64358 5653 ft 237 kts 192°
2026-05-05 12:12 44.48537 11.63962 5445 ft 226 kts 195°
2026-05-05 12:12 44.47050 11.63453 5250 ft 214 kts 199°
2026-05-05 12:12 44.45672 11.62859 5098 ft 197 kts 202°
2026-05-05 12:13 44.44441 11.62213 4970 ft 181 kts 205°
2026-05-05 12:13 44.43392 11.61348 4818 ft 175 kts 226°
2026-05-05 12:13 44.42826 11.59874 4690 ft 175 kts 254°
2026-05-05 12:13 44.42931 11.58179 4722 ft 182 kts 285°
2026-05-05 12:14 44.43527 11.56607 4713 ft 186 kts 296°
2026-05-05 12:14 44.44118 11.55027 4585 ft 185 kts 292°
2026-05-05 12:14 44.44704 11.53424 4354 ft 184 kts 292°
2026-05-05 12:14 44.45276 11.51843 4092 ft 178 kts 292°
2026-05-05 12:15 44.45821 11.50333 3824 ft 169 kts 291°
2026-05-05 12:15 44.46338 11.48899 3561 ft 163 kts 292°
2026-05-05 12:15 44.46849 11.47478 3323 ft 164 kts 293°
2026-05-05 12:15 44.47361 11.46056 3075 ft 162 kts 292°
2026-05-05 12:16 44.47869 11.44644 2827 ft 163 kts 292°
2026-05-05 12:16 44.48374 11.43241 2573 ft 160 kts 292°
2026-05-05 12:16 44.48879 11.41837 2345 ft 161 kts 293°
2026-05-05 12:16 44.49366 11.40487 2081 ft 151 kts 294°
2026-05-05 12:17 44.49825 11.39213 1837 ft 144 kts 294°
2026-05-05 12:17 44.50284 11.37934 1630 ft 147 kts 294°
2026-05-05 12:17 44.50741 11.36666 1397 ft 146 kts 295°
2026-05-05 12:17 44.51203 11.35381 1177 ft 149 kts 296°
2026-05-05 12:18 44.51672 11.34078 930 ft 152 kts 297°
2026-05-05 12:18 44.52152 11.32741 699 ft 154 kts 298°
2026-05-05 12:18 44.52622 11.31415 396 ft 152 kts 298°
2026-05-05 12:18 44.53100 11.30084 176 ft 153 kts 299°
2026-05-05 12:19 44.53555 11.28878 134 ft 110 kts 299°
2026-05-05 12:19 44.53754 11.28277 137 ft 21 kts 294°
2026-05-05 12:19 44.53772 11.28179 136 ft 14 kts 268°
2026-05-05 12:19 44.53753 11.28089 136 ft 11 kts 234°
2026-05-05 12:20 44.53743 11.28069 136 ft 0 kts 235°
2026-05-05 12:23 44.53729 11.28050 135 ft 9 kts 215°
2026-05-05 12:24 44.53645 11.28064 133 ft 16 kts 132°
2026-05-05 12:24 44.53581 11.28219 134 ft 20 kts 117°
2026-05-05 12:24 44.53515 11.28405 131 ft 23 kts 116°
2026-05-05 12:24 44.53437 11.28621 126 ft 26 kts 117°
2026-05-05 12:25 44.53352 11.28858 134 ft 29 kts 116°
2026-05-05 12:25 44.53268 11.29085 137 ft 23 kts 117°
2026-05-05 12:25 44.53213 11.29236 140 ft 15 kts 117°
2026-05-05 12:25 44.53167 11.29350 139 ft 11 kts 148°
2026-05-05 12:26 44.53134 11.29332 139 ft 6 kts 255°
2026-05-05 12:26 44.53113 11.29298 138 ft 5 kts 217°
2026-05-05 12:26 44.53095 11.29281 138 ft 3 kts 210°
2026-05-05 12:26 44.53089 11.29277 137 ft 1 kts 206°
2026-05-05 12:27 44.53086 11.29275 137 ft 0 kts 207°
2026-05-05 12:27 44.53081 11.29271 137 ft 2 kts 208°
2026-05-05 12:27 44.53080 11.29270 137 ft 0 kts 208°